Theta_e
340 338 337 338 341 337 332 330 327 325 323 323 322 320 319 319 320 322 321 322 320 322 324 327 328 331 328 327 331 332 328 328
335 341 340 338 339 342 335 332 329 327 325 323 323 320 320 319 320 322 320 322 319 322 323 326 329 330 328 329 331 333 330 329
315 323 339 341 339 341 343 337 331 329 327 324 323 322 321 320 321 321 321 322 320 322 323 327 328 328 329 330 331 333 333 329
310 313 318 334 338 341 339 342 337 331 328 326 324 322 322 321 323 322 321 322 321 321 324 328 328 329 331 331 331 332 333 329
309 310 312 316 330 339 341 337 338 333 331 329 325 323 323 324 324 325 324 323 322 323 326 329 329 332 332 334 334 332 332 331
307 308 309 310 313 326 337 340 336 336 338 331 328 325 323 324 325 324 323 323 322 322 327 328 328 333 331 333 334 334 333 331
304 306 307 308 309 312 323 336 338 338 339 337 331 328 325 324 327 325 324 322 322 320 326 327 329 332 332 333 334 334 333 333
301 302 304 306 308 309 310 320 333 337 337 335 335 330 329 327 326 326 325 324 323 320 322 327 330 333 332 333 334 334 333 334
299 300 301 302 304 306 308 311 316 329 337 335 334 337 336 330 327 326 326 325 323 322 322 327 329 334 333 333 334 333 333 332
298 299 299 300 301 302 305 307 310 315 330 330 335 337 335 336 332 330 331 332 325 322 321 324 328 333 334 333 332 333 332 332
297 299 298 299 300 301 302 303 305 309 314 331 336 336 332 335 335 334 332 329 327 325 322 321 327 329 334 333 333 333 332 332
296 297 298 298 299 300 301 302 302 304 308 311 323 332 334 334 334 337 335 333 330 328 325 322 323 329 333 334 334 333 330 332
296 296 296 297 298 299 300 300 301 302 304 306 310 320 330 332 331 334 336 335 333 330 330 323 324 330 333 334 335 333 329 334
294 295 296 297 296 296 297 298 299 300 302 303 305 309 319 330 330 331 333 335 336 333 333 327 326 324 330 334 332 330 328 333
293 293 294 295 296 296 297 297 298 299 301 302 303 305 309 316 328 329 330 332 334 334 333 334 326 325 324 331 330 329 329 331
293 293 293 293 295 296 296 295 296 297 298 300 302 303 306 310 316 326 331 330 333 334 333 334 331 326 322 329 330 328 329 330
293 293 292 292 293 294 295 295 296 296 296 298 301 302 304 306 314 317 319 325 327 330 331 334 334 328 323 323 329 328 327 329
294 293 292 292 292 293 293 295 295 295 295 296 298 301 303 305 314 318 319 320 320 326 322 329 332 331 325 324 326 328 327 327
294 293 292 291 291 293 292 293 295 294 294 294 296 298 302 304 308 314 317 319 318 318 321 320 324 327 327 324 323 325 326 326
294 292 291 289 290 292 292 292 293 294 294 293 294 296 298 300 304 308 315 317 318 318 317 319 320 318 322 325 324 322 324 325
Wind_Speed
5 10 14 19 19 19 21 20 21 22 21 21 22 21 20 20 20 20 19 19 19 22 22 23 23 25 25 23 21 21 21 23
7 4 10 15 18 16 21 22 22 23 23 22 23 22 22 22 21 21 20 20 20 22 23 24 24 26 25 23 22 21 20 22
19 11 6 8 13 19 10 23 24 24 24 24 24 25 25 24 24 22 22 21 21 22 23 25 25 25 24 23 22 22 22 22
27 22 15 9 7 16 22 11 22 24 27 28 28 28 28 27 25 23 23 23 22 23 24 26 27 27 25 23 23 22 22 22
27 25 21 17 11 9 12 24 21 23 31 32 31 30 30 30 28 26 25 25 25 26 27 29 30 30 29 27 23 22 22 24
24 24 24 20 17 13 7 17 27 30 35 35 34 34 33 34 33 31 30 30 30 31 33 33 33 31 27 24 26 25 23 25
25 22 22 23 20 16 15 14 21 27 30 37 39 38 37 37 35 34 33 33 33 34 36 35 35 33 28 26 29 25 22 23
30 27 24 22 20 20 17 16 18 23 29 34 41 38 37 38 39 39 36 35 35 36 37 36 37 35 31 29 28 25 23 24
35 32 28 26 23 21 19 16 18 21 26 30 30 27 35 40 40 41 40 39 38 38 38 38 39 39 35 31 29 26 26 25
37 36 33 29 26 25 22 21 19 17 27 38 19 24 39 42 42 42 39 43 41 41 41 42 42 43 39 35 31 29 28 26
40 40 39 38 33 29 25 24 21 21 19 29 23 32 31 31 34 43 44 45 44 43 44 45 44 45 43 39 35 32 30 29
35 40 41 42 41 38 32 27 25 23 23 21 31 23 34 21 39 38 42 43 43 46 47 47 45 43 44 42 38 34 31 32
34 38 42 41 44 45 44 38 33 28 25 24 23 29 24 46 22 45 37 43 48 48 47 48 45 36 38 43 40 36 32 32
35 35 39 40 39 38 39 41 39 34 29 28 26 25 28 28 44 25 46 38 41 48 51 51 42 47 46 43 30 35 36 37
36 36 35 37 39 37 36 38 41 40 36 32 29 27 25 29 33 45 23 44 44 44 53 54 54 51 49 33 30 23 31 42
37 37 36 37 36 37 37 36 38 42 40 36 35 31 27 24 30 36 39 18 42 50 52 58 55 48 55 51 40 30 31 24
37 37 36 37 36 33 36 35 35 34 39 37 32 33 27 23 18 25 26 36 28 39 34 58 59 59 55 58 45 44 32 28
40 40 38 37 36 33 32 35 34 36 35 38 36 32 30 18 20 18 21 23 34 67 56 41 62 57 60 51 53 49 46 40
38 40 41 40 36 30 31 31 33 33 35 33 37 35 29 20 25 25 20 23 24 37 49 54 35 44 57 63 53 53 47 42
38 41 42 39 34 30 31 32 30 31 31 31 33 33 30 24 21 25 29 22 24 33 40 52 61 46 38 43 58 56 49 43
Wind_Direction
267 256 252 238 230 240 231 226 231 230 223 218 213 206 198 194 192 194 196 195 194 187 183 179 173 170 170 166 163 160 162 163
13 279 247 246 236 239 240 235 230 231 232 226 221 213 204 198 195 199 197 199 194 191 186 182 177 173 172 168 166 162 166 168
8 4 300 254 239 240 244 249 236 233 230 229 223 217 208 204 202 200 200 200 197 194 188 183 179 176 173 171 171 172 172 175
0 358 352 302 272 236 241 258 248 242 233 228 223 220 214 209 207 205 202 201 198 195 191 185 180 178 177 175 179 179 179 180
353 351 352 344 294 259 239 235 232 236 244 233 224 222 217 214 208 207 203 202 198 195 192 189 188 183 181 183 186 185 184 186
347 344 341 343 341 299 252 218 221 231 248 236 227 224 219 217 212 210 207 204 200 198 195 196 194 193 192 192 189 188 186 187
349 341 334 332 334 330 297 238 227 235 240 241 231 224 223 220 219 212 211 208 205 204 201 201 197 197 198 196 189 191 193 192
355 351 341 326 317 317 318 287 251 232 238 247 228 225 226 223 226 218 215 213 210 209 207 203 201 200 202 200 198 198 200 200
5 358 353 343 327 314 305 293 287 263 242 256 250 233 242 234 231 229 221 216 214 213 211 207 205 204 205 204 205 207 204 203
10 9 3 357 348 333 314 297 288 281 255 244 234 225 247 235 235 234 236 225 215 215 213 211 208 208 207 208 209 208 208 207
12 14 11 7 1 351 334 318 294 281 269 250 231 231 250 236 241 237 231 229 225 218 216 215 211 209 209 210 213 213 214 214
12 14 17 12 8 3 353 337 324 295 276 271 252 228 232 239 243 239 237 235 230 227 220 218 215 212 207 211 215 217 222 219
13 12 16 15 12 8 3 351 337 321 301 280 268 255 234 229 244 234 237 233 235 230 225 221 216 210 203 210 215 219 223 223
14 12 12 16 14 10 1 358 351 337 321 301 284 272 255 241 231 236 226 229 237 234 228 222 218 212 206 207 208 217 219 215
17 14 9 9 11 12 2 0 359 351 339 323 306 280 264 256 241 234 243 227 230 241 234 223 218 218 210 197 193 211 213 216
14 13 11 7 7 10 11 358 356 356 347 333 320 302 276 261 258 242 234 215 224 221 240 226 223 215 214 210 207 204 200 209
8 7 6 5 5 3 5 4 355 356 354 342 329 317 297 275 265 257 267 244 228 205 217 228 222 221 218 211 208 210 210 205
7 3 2 360 1 1 359 2 1 358 358 354 342 326 318 289 252 254 240 259 241 240 259 236 225 224 222 214 210 207 210 203
4 1 358 355 356 354 358 357 -0 359 359 358 354 338 320 308 261 256 246 238 237 230 237 253 251 221 217 223 218 216 215 215
0 358 355 352 351 349 354 356 356 359 0 0 2 352 329 311 296 269 247 239 230 233 233 235 240 265 245 226 222 221 218 216